Regional Weather Roundup
Issued by NWS

Home | Current Version | Previous Version | Graphics & Text | Print | Product List | Glossary On
Versions: 1 2 3 4 5 6 7 8 9 10 11 12 13 14 15 16 17 18 19 20 21 22 23 24 25 26 27 28 29 30 31 32 33 34 35 36 37 38 39 40 41 42 43 44 45 46 47 48 49 50
000
ASUS45 KBOU 130310
RWRCO

WEATHER ROUNDUP FOR COLORADO
NATIONAL WEATHER SERVICE DENVER/BOULDER CO
900 PM MDT SAT JUL 12 2014

NOTE: "FAIR" INDICATES FEW OR NO CLOUDS BELOW 12000 FEET WITH NO
SIGNIFICANT WEATHER AND/OR OBSTRUCTIONS TO VISIBILITY.

COZ001>005-013-030-031-130400-
...NORTHWEST COLORADO...

CITY           SKY/WX    TMP DP  RH WIND       PRES   REMARKS
CRAIG          CLEAR     67  61  81 E3        30.27R
HAYDEN         CLEAR     72  52  49 E6        30.30R
MEEKER         CLEAR     72  50  45 NE7       30.27R
MOUNT WERNER   NOT AVBL
STEAMBOAT SPGS MOCLDY    72  51  48 NE16G22   30.34R
WALDEN         CLOUDY    63  46  55 NE13      30.48R
$$

COZ006>008-011-130400-
...WEST CENTRAL VALLEYS...

CITY           SKY/WX    TMP DP  RH WIND       PRES   REMARKS
GRAND JUNCTION PTCLDY    88  46  23 N12       30.09R
MONTROSE       CLOUDY    84  46  26 E18       30.20R
EAGLE          PTCLDY    73  57  56 W6        30.31R
RIFLE          PTCLDY    80  55  42 VRB3      30.18R
DELTA          PTCLDY    84  51  31 NE13      30.14R
NUCLA          PTCLDY    79  46  31 W9        30.26R
$$

COZ017>023-064>068-130400-
...SOUTHWEST COLORADO...

CITY           SKY/WX    TMP DP  RH WIND       PRES   REMARKS
DURANGO        MOCLDY    67  52  58 NE3       30.27S
CORTEZ         CLEAR     75  51  43 NE7       30.20S
PAGOSA SPRINGS MOCLDY    68  44  41 NE6       30.37F
TELLURIDE      MOCLDY    61  52  72 SW5       30.49R
WOLF CREEK PAS NOT AVBL
$$

COZ009-010-012-014-032>034-037-058>063-130400-
...CENTRAL COLORADO...

CITY           SKY/WX    TMP DP  RH WIND       PRES   REMARKS
ASPEN          MOCLDY    69  48  47 SE14G21   30.38S
BUENA VISTA    LGT RAIN  59  55  87 CALM      30.50S
COPPER MTN     CLOUDY    54  43  66 SW5       30.75S
BERTHOUD PASS  HAZE      43  30  61 E16       30.81S THUNDER VSB<1/4
COTTONWOOD PAS LGT RAIN  55  52  88 SW6       30.62S
GUNNISON       CLOUDY    61  52  72 N5        30.45S
KREMMLING      PTCLDY    66  52  59 CALM      30.40R
LEADVILLE      CLOUDY    50  49  96 NE3       30.59F
SALIDA         CLOUDY    64  54  72 NW8       30.54R
SUNLIGHT       PTCLDY    59  46  63 NE5       30.65R
WILKERSON PASS CLOUDY    46  45  93 W3        30.74S
$$

COZ069>075-130400-
...SAN LUIS VALLEY/SANGRE DE CRISTO MOUNTAINS...

CITY           SKY/WX    TMP DP  RH WIND       PRES   REMARKS
ALAMOSA        CLOUDY    66  47  50 S7        30.39R
LA VETA PASS   CLOUDY    48  45  87 E8        30.61R THUNDER
SAGUACHE       NOT AVBL
$$

COZ035-036-038>040-130400-
...NORTHERN COLORADO FRONT RANGE...

CITY           SKY/WX    TMP DP  RH WIND       PRES   REMARKS
DENVER INTL AP CLOUDY    65  60  84 SW10      30.33S
DMNS CITY PARK   N/A     65  60  85 SW13      30.34S
AURORA         NOT AVBL
FRONT RANGE AP NOT AVBL
ERIE MUNI ARPT CLOUDY    69  59  70 CALM      30.32S
BOULDER MUN AP CLOUDY    70  57  64 S6        30.32S
CENTENNIAL     CLOUDY    62  59  90 SW13      30.36F
BROOMFIELD     MOCLDY    68  61  77 S8        30.36S
FORT COLLINS   CLOUDY    70  61  73 SW3       30.31R
LONGMONT       CLOUDY    71  64  78 S3        30.33S
$$

COZ041-046-047-076>085-087-088-130400-
...PIKES PEAK/PALMER DIVIDE AND SOUTHERN FOOTHILLS...

CITY           SKY/WX    TMP DP  RH WIND       PRES   REMARKS
COLO. SPRINGS  LGT RAIN  62  55  77 NW7       30.43R
A. F. ACADEMY  NOT AVBL
ELLICOTT       TSTM      60  57  89 N21       30.38R
FALCON         RAIN      59  56  91 N7        30.46R
FORT CARSON    NOT AVBL
LIMON          LGT RAIN  64  61  90 NW12      30.31R
MONUMENT HILL  RAIN      55  55 100 SW8       30.43F
TRINIDAD       LGT RAIN  65  60  84 SW12      30.32R
$$

COZ042>045-048>051-090-091-130400-
...NORTHEAST COLORADO...

CITY           SKY/WX    TMP DP  RH WIND       PRES   REMARKS
GREELEY ARPT   NOT AVBL
AKRON          CLOUDY    72  61  68 N5        30.26R
BURLINGTON     CLOUDY    75  62  64 NE9       30.20R
WRAY             N/A     74  64  73 N6        30.19R
STERLING       CLOUDY    75  68  78 N3        30.21S
HOLYOKE        PTCLDY    73  64  73 CALM      30.21R
FORT MORGAN    CLOUDY    71  56  59 NE6       30.26S
$$

COZ086-089-092>099-130400-
...SOUTHEAST COLORADO...

CITY           SKY/WX    TMP DP  RH WIND       PRES   REMARKS
PUEBLO         CLOUDY    71  59  65 N17G24    30.30R
LA JUNTA       TSTM      64  63  96 SW29G49   30.29R VSB 1/2
LAMAR          CLOUDY    84  60  44 NE10      30.11R THUNDER
SPRINGFIELD      N/A     74  64  71 NW8       30.16R
$$


USA.gov is the U.S. government's official web portal to all federal, state and local government web resources and services.